BAW83 EGLL-DNAA

Flight info

Callsign BAW83
Flight time 5h 31m
Altitude 35000
Route MODMI M185 MID L151 SITET/N0472F370 UN859 ETRAT DCT GONEK DCT ELKUK DCT ROCAN DCT PUMAL DCT XEPLA DCT BCN DCT GARBI DCT LARPA DCT TOLSO DCT LISAS DCT MJV N859 MOGIL UB31 ZEM/N0467F380 UB726 BSA/N0465F370 UJ36 TGU UM508 BOD/N0478F390 UR978 AS UA604 MIMBA/N0476F400 DCT OXORU OXORU1N
Aircraft B77W/H-SDE1E2E3FGHIJ2J3J4J5M1RWXY/LB1D1

Departure

Time 2026-04-23 16:39
Airport London Heathrow Airport (EGLL)

Arrival

Time 2026-04-23 22:11
Airport Nnamdi Azikiwe International Airport (DNAA)
Time Latitude Longitude Altitude Speed Heading
2026-04-23 15:42 51.47115 -0.48239 91 ft 0 kts 90°
2026-04-23 16:28 51.47115 -0.48256 91 ft 4 kts 86°
2026-04-23 16:29 51.47112 -0.48299 92 ft 4 kts 86°
2026-04-23 16:29 51.47115 -0.48336 92 ft 2 kts 126°
2026-04-23 16:29 51.47131 -0.48361 94 ft 4 kts 172°
2026-04-23 16:29 51.47157 -0.48358 93 ft 3 kts 181°
2026-04-23 16:30 51.47164 -0.48358 93 ft 0 kts 180°
2026-04-23 16:33 51.47147 -0.48358 92 ft 11 kts 179°
2026-04-23 16:33 51.47091 -0.48357 94 ft 8 kts 179°
2026-04-23 16:33 51.47037 -0.48356 94 ft 8 kts 179°
2026-04-23 16:33 51.46984 -0.48355 94 ft 8 kts 179°
2026-04-23 16:34 51.46930 -0.48354 94 ft 8 kts 179°
2026-04-23 16:34 51.46877 -0.48354 92 ft 8 kts 180°
2026-04-23 16:34 51.46823 -0.48354 91 ft 8 kts 180°
2026-04-23 16:34 51.46764 -0.48363 91 ft 9 kts 202°
2026-04-23 16:35 51.46744 -0.48457 92 ft 10 kts 269°
2026-04-23 16:35 51.46742 -0.48583 91 ft 12 kts 269°
2026-04-23 16:35 51.46731 -0.48709 96 ft 12 kts 237°
2026-04-23 16:35 51.46656 -0.48747 93 ft 12 kts 185°
2026-04-23 16:36 51.46609 -0.48764 94 ft 0 kts 197°
2026-04-23 16:36 51.46607 -0.48765 94 ft 1 kts 197°
2026-04-23 16:37 51.46585 -0.48775 93 ft 5 kts 194°
2026-04-23 16:37 51.46535 -0.48783 94 ft 9 kts 175°
2026-04-23 16:37 51.46485 -0.48703 96 ft 12 kts 110°
2026-04-23 16:37 51.46478 -0.48626 94 ft 0 kts 89°
2026-04-23 16:38 51.46479 -0.48496 91 ft 42 kts 89°
2026-04-23 16:38 51.46482 -0.47587 93 ft 118 kts 90°
2026-04-23 16:39 51.46483 -0.45949 122 ft 171 kts 89°
2026-04-23 16:39 51.46470 -0.44027 787 ft 177 kts 88°
2026-04-23 16:39 51.46491 -0.41860 1056 ft 210 kts 95°
2026-04-23 16:39 51.45863 -0.39652 1663 ft 228 kts 124°
2026-04-23 16:40 51.44754 -0.37734 2402 ft 244 kts 142°
2026-04-23 16:40 51.43168 -0.36677 3423 ft 250 kts 159°
2026-04-23 16:40 51.41494 -0.35793 4362 ft 255 kts 161°
2026-04-23 16:40 51.39700 -0.35699 5224 ft 267 kts 193°
2026-04-23 16:41 51.37991 -0.36957 5860 ft 274 kts 205°
2026-04-23 16:41 51.36289 -0.38367 5998 ft 280 kts 203°
2026-04-23 16:41 51.34533 -0.39766 5992 ft 283 kts 203°
2026-04-23 16:41 51.32780 -0.41149 5999 ft 280 kts 202°
2026-04-23 16:42 51.31025 -0.42416 5962 ft 273 kts 192°
2026-04-23 16:42 51.29165 -0.42858 5978 ft 272 kts 180°
2026-04-23 16:42 51.27267 -0.43117 5980 ft 276 kts 181°
2026-04-23 16:42 51.25351 -0.43421 6043 ft 276 kts 181°
2026-04-23 16:43 51.23441 -0.43729 6594 ft 276 kts 181°
2026-04-23 16:43 51.21515 -0.44013 7616 ft 279 kts 181°
2026-04-23 16:43 51.19577 -0.44277 8635 ft 282 kts 180°
2026-04-23 16:43 51.17607 -0.44546 9573 ft 287 kts 181°
2026-04-23 16:44 51.15596 -0.44813 10495 ft 293 kts 181°
2026-04-23 16:44 51.13509 -0.45086 11111 ft 312 kts 180°
2026-04-23 16:44 51.11237 -0.45371 11344 ft 342 kts 181°
2026-04-23 16:44 51.08774 -0.45663 11738 ft 365 kts 181°
2026-04-23 16:45 51.06205 -0.45965 12552 ft 375 kts 181°
2026-04-23 16:45 51.03580 -0.46274 13487 ft 381 kts 181°
2026-04-23 16:45 51.00919 -0.46594 14485 ft 386 kts 181°
2026-04-23 16:45 50.98232 -0.46923 15464 ft 388 kts 181°
2026-04-23 16:46 50.95533 -0.47249 16463 ft 390 kts 181°
2026-04-23 16:46 50.92816 -0.47566 17423 ft 394 kts 181°
2026-04-23 16:46 50.90069 -0.47872 18381 ft 398 kts 181°
2026-04-23 16:46 50.87292 -0.48160 19228 ft 402 kts 181°
2026-04-23 16:47 50.84491 -0.48443 20067 ft 405 kts 181°
2026-04-23 16:47 50.81667 -0.48729 20870 ft 409 kts 181°
2026-04-23 16:47 50.78810 -0.49009 21603 ft 414 kts 181°
2026-04-23 16:47 50.75913 -0.49273 22332 ft 416 kts 180°
2026-04-23 16:48 50.73058 -0.48786 22893 ft 417 kts 160°
2026-04-23 16:48 50.70536 -0.46604 23629 ft 414 kts 139°
2026-04-23 16:48 50.68448 -0.43466 24257 ft 418 kts 133°
2026-04-23 16:48 50.66441 -0.40143 24982 ft 419 kts 134°
2026-04-23 16:49 50.65018 -0.38077 25426 ft 421 kts 139°
2026-04-23 16:49 50.61771 -0.34413 25815 ft 439 kts 148°
2026-04-23 16:49 50.59049 -0.32124 26301 ft 446 kts 152°
2026-04-23 16:49 50.56208 -0.30104 26843 ft 451 kts 156°
2026-04-23 16:50 50.53324 -0.28230 27297 ft 457 kts 156°
2026-04-23 16:50 50.50311 -0.26343 27772 ft 463 kts 157°
2026-04-23 16:50 50.47297 -0.24462 28231 ft 469 kts 156°
2026-04-23 16:50 50.44254 -0.22544 28695 ft 473 kts 157°
2026-04-23 16:51 50.41235 -0.20621 29174 ft 478 kts 156°
2026-04-23 16:51 50.38122 -0.18628 29441 ft 487 kts 156°
2026-04-23 16:51 50.34974 -0.16604 29954 ft 490 kts 157°
2026-04-23 16:51 50.31809 -0.14574 30354 ft 495 kts 157°
2026-04-23 16:52 50.28597 -0.12515 30627 ft 501 kts 157°
2026-04-23 16:52 50.25353 -0.10442 30977 ft 504 kts 157°
2026-04-23 16:52 50.22115 -0.08375 31522 ft 503 kts 157°
2026-04-23 16:52 50.18877 -0.06272 31934 ft 503 kts 156°
2026-04-23 16:53 50.15669 -0.04025 32244 ft 508 kts 155°
2026-04-23 16:53 50.12447 -0.01729 32594 ft 509 kts 156°
2026-04-23 16:53 50.09208 0.00287 33690 ft 491 kts 161°
2026-04-23 16:53 50.05978 0.01751 34713 ft 479 kts 166°
2026-04-23 16:54 50.02751 0.02976 35128 ft 479 kts 166°
2026-04-23 16:54 49.99484 0.04202 35222 ft 485 kts 166°
2026-04-23 16:54 49.96204 0.05444 35514 ft 487 kts 167°
2026-04-23 16:54 49.92879 0.06722 35532 ft 495 kts 166°
2026-04-23 16:55 49.89537 0.08021 35907 ft 493 kts 166°
2026-04-23 16:55 49.86212 0.09321 36292 ft 492 kts 166°
2026-04-23 16:55 49.82909 0.10614 36812 ft 486 kts 166°
2026-04-23 16:55 49.79639 0.11892 37275 ft 483 kts 166°
2026-04-23 16:56 49.73084 0.14444 37287 ft 491 kts 166°
2026-04-23 16:56 49.66409 0.16915 37267 ft 493 kts 169°
2026-04-23 16:57 49.59696 0.18867 37258 ft 489 kts 170°
2026-04-23 16:57 49.53023 0.20746 37263 ft 487 kts 170°
2026-04-23 16:58 49.46366 0.22641 37264 ft 486 kts 170°
2026-04-23 16:58 49.39705 0.24553 37271 ft 488 kts 170°
2026-04-23 16:59 49.33019 0.26473 37273 ft 490 kts 170°
2026-04-23 16:59 49.26301 0.28396 37270 ft 492 kts 170°
2026-04-23 17:00 49.19562 0.30318 37269 ft 494 kts 170°
2026-04-23 17:00 49.12796 0.32243 37268 ft 495 kts 170°
2026-04-23 17:01 49.06019 0.34166 37240 ft 496 kts 170°
2026-04-23 17:01 48.99285 0.36071 37267 ft 496 kts 170°
2026-04-23 17:02 48.92504 0.37984 37263 ft 495 kts 170°
2026-04-23 17:02 48.85729 0.39890 37258 ft 495 kts 170°
2026-04-23 17:03 48.78961 0.41788 37243 ft 494 kts 170°
2026-04-23 17:03 48.72199 0.43680 37259 ft 494 kts 170°
2026-04-23 17:04 48.65444 0.45564 37249 ft 493 kts 170°
2026-04-23 17:04 48.58705 0.47441 37234 ft 492 kts 170°
2026-04-23 17:05 48.51972 0.49309 37236 ft 492 kts 170°
2026-04-23 17:05 48.45236 0.51173 37227 ft 492 kts 170°
2026-04-23 17:06 48.38501 0.53032 37234 ft 493 kts 171°
2026-04-23 17:06 48.31750 0.54890 37222 ft 494 kts 171°
2026-04-23 17:07 48.24980 0.56749 37227 ft 495 kts 171°
2026-04-23 17:07 48.18189 0.58609 37220 ft 496 kts 171°
2026-04-23 17:08 48.11389 0.60466 37220 ft 497 kts 171°
2026-04-23 17:08 48.04573 0.62315 37211 ft 498 kts 171°
2026-04-23 17:09 47.97750 0.64157 37205 ft 499 kts 171°
2026-04-23 17:09 47.90912 0.66000 37200 ft 499 kts 171°
2026-04-23 17:10 47.84127 0.67825 37198 ft 499 kts 171°
2026-04-23 17:10 47.78404 0.69361 37192 ft 499 kts 171°
2026-04-23 17:11 47.71576 0.71188 37183 ft 498 kts 171°
2026-04-23 17:11 47.64753 0.73009 37188 ft 498 kts 171°
2026-04-23 17:12 47.57941 0.74823 37176 ft 497 kts 171°
2026-04-23 17:12 47.51133 0.76631 37184 ft 497 kts 171°
2026-04-23 17:13 47.44331 0.78432 37187 ft 496 kts 171°
2026-04-23 17:13 47.37532 0.80229 37174 ft 496 kts 172°
2026-04-23 17:14 47.30742 0.82018 37180 ft 496 kts 172°
2026-04-23 17:14 47.23993 0.83790 37180 ft 496 kts 171°
2026-04-23 17:15 47.17185 0.85575 37167 ft 497 kts 172°
2026-04-23 17:15 47.10372 0.87356 37159 ft 498 kts 172°
2026-04-23 17:16 47.03545 0.89137 37157 ft 499 kts 172°
2026-04-23 17:16 46.96711 0.90916 37152 ft 499 kts 172°
2026-04-23 17:17 46.89873 0.92697 37152 ft 499 kts 172°
2026-04-23 17:17 46.83038 0.94475 37151 ft 499 kts 172°
2026-04-23 17:18 46.72786 0.97131 37150 ft 498 kts 172°
2026-04-23 17:19 46.65968 0.98892 37145 ft 498 kts 172°
2026-04-23 17:19 46.59141 1.00651 37145 ft 498 kts 172°
2026-04-23 17:20 46.52324 1.02402 37135 ft 497 kts 172°
2026-04-23 17:21 46.38720 1.05884 37129 ft 496 kts 172°
2026-04-23 17:21 46.28539 1.08478 37132 ft 495 kts 172°
2026-04-23 17:22 46.18369 1.11059 37128 ft 494 kts 172°
2026-04-23 17:23 46.08257 1.13617 37127 ft 494 kts 172°
2026-04-23 17:24 45.98108 1.16174 37125 ft 493 kts 172°
2026-04-23 17:24 45.88064 1.18696 37143 ft 493 kts 172°
2026-04-23 17:25 45.77905 1.21236 37131 ft 494 kts 172°
2026-04-23 17:26 45.64325 1.24618 37112 ft 496 kts 172°
2026-04-23 17:27 45.54116 1.27149 37121 ft 496 kts 172°
2026-04-23 17:27 45.47311 1.28832 37117 ft 496 kts 172°
2026-04-23 17:28 45.40510 1.30509 37123 ft 496 kts 172°
2026-04-23 17:28 45.33714 1.32181 37111 ft 495 kts 172°
2026-04-23 17:29 45.26932 1.33845 37117 ft 494 kts 172°
2026-04-23 17:30 45.16766 1.36331 37116 ft 494 kts 172°
2026-04-23 17:30 45.06617 1.38807 37131 ft 493 kts 172°
2026-04-23 17:31 44.99859 1.40449 37121 ft 493 kts 172°
2026-04-23 17:31 44.93099 1.42088 37131 ft 493 kts 172°
2026-04-23 17:32 44.86343 1.43722 37114 ft 493 kts 172°
2026-04-23 17:32 44.79588 1.45351 37130 ft 493 kts 172°
2026-04-23 17:33 44.72833 1.46978 37126 ft 493 kts 172°
2026-04-23 17:33 44.66073 1.48602 37130 ft 493 kts 172°
2026-04-23 17:34 44.59316 1.50220 37113 ft 493 kts 173°
2026-04-23 17:35 44.49181 1.52640 37128 ft 492 kts 173°
2026-04-23 17:35 44.39040 1.55055 37122 ft 494 kts 173°
2026-04-23 17:36 44.32472 1.56614 37148 ft 494 kts 173°
2026-04-23 17:36 44.25737 1.58208 37140 ft 495 kts 173°
2026-04-23 17:37 44.18944 1.59813 37131 ft 495 kts 173°
2026-04-23 17:38 44.08759 1.62213 37134 ft 495 kts 173°
2026-04-23 17:38 44.01969 1.63808 37132 ft 495 kts 173°
2026-04-23 17:39 43.95184 1.65398 37139 ft 494 kts 173°
2026-04-23 17:39 43.88408 1.66983 37127 ft 494 kts 173°
2026-04-23 17:40 43.81632 1.68563 37116 ft 493 kts 173°
2026-04-23 17:40 43.74866 1.70138 37120 ft 493 kts 173°
2026-04-23 17:41 43.68112 1.71706 37119 ft 492 kts 173°
2026-04-23 17:41 43.57983 1.74051 37110 ft 492 kts 173°
2026-04-23 17:42 43.47865 1.76386 37112 ft 492 kts 173°
2026-04-23 17:43 43.41112 1.77939 37100 ft 492 kts 173°
2026-04-23 17:43 43.34355 1.79490 37105 ft 493 kts 173°
2026-04-23 17:44 43.27591 1.81039 37112 ft 493 kts 173°
2026-04-23 17:44 43.17471 1.83352 37111 ft 494 kts 173°
2026-04-23 17:45 43.07313 1.85664 37113 ft 493 kts 173°
2026-04-23 17:46 42.97165 1.87967 37111 ft 492 kts 173°
2026-04-23 17:46 42.90409 1.89496 37116 ft 492 kts 173°
2026-04-23 17:47 42.83655 1.91020 37134 ft 492 kts 173°
2026-04-23 17:48 42.73489 1.93309 37139 ft 495 kts 173°
2026-04-23 17:48 42.66689 1.94835 37146 ft 496 kts 173°
2026-04-23 17:49 42.59849 1.96231 37121 ft 498 kts 174°
2026-04-23 17:49 42.53004 1.97563 37147 ft 497 kts 174°
2026-04-23 17:50 42.46171 1.98914 37161 ft 496 kts 174°
2026-04-23 17:50 42.35945 2.00908 37168 ft 493 kts 177°
2026-04-23 17:51 42.29127 2.01599 37177 ft 491 kts 179°
2026-04-23 17:52 42.18914 2.02517 37184 ft 490 kts 179°
2026-04-23 17:52 42.08710 2.03488 37188 ft 490 kts 179°
2026-04-23 17:53 41.98497 2.04467 37181 ft 491 kts 179°
2026-04-23 17:54 41.91727 2.05114 37184 ft 491 kts 179°
2026-04-23 17:54 41.81488 2.06088 37180 ft 492 kts 179°
2026-04-23 17:55 41.71225 2.07061 37163 ft 493 kts 179°
2026-04-23 17:56 41.64391 2.07702 37165 ft 493 kts 179°
2026-04-23 17:56 41.55285 2.08540 37157 ft 492 kts 179°
2026-04-23 17:57 41.48458 2.09170 37154 ft 492 kts 179°
2026-04-23 17:58 41.38224 2.10111 37176 ft 491 kts 179°
2026-04-23 17:58 41.31414 2.10823 37178 ft 492 kts 175°
2026-04-23 17:59 41.24719 2.12802 37196 ft 494 kts 167°
2026-04-23 17:59 41.18099 2.15259 37176 ft 494 kts 167°
2026-04-23 18:00 41.11474 2.17663 37173 ft 494 kts 167°
2026-04-23 18:00 41.04837 2.20024 37162 ft 493 kts 167°
2026-04-23 18:01 40.98209 2.22370 37156 ft 493 kts 167°
2026-04-23 18:01 40.91575 2.24717 37143 ft 493 kts 167°
2026-04-23 18:02 40.84941 2.27062 37138 ft 493 kts 168°
2026-04-23 18:02 40.78319 2.29398 37148 ft 493 kts 167°
2026-04-23 18:03 40.71683 2.31737 37139 ft 494 kts 167°
2026-04-23 18:03 40.65034 2.34079 37141 ft 495 kts 167°
2026-04-23 18:04 40.58362 2.36410 37137 ft 496 kts 168°
2026-04-23 18:04 40.51677 2.38719 37127 ft 497 kts 168°
2026-04-23 18:05 40.44984 2.41035 37120 ft 497 kts 168°
2026-04-23 18:05 40.38294 2.43353 37124 ft 497 kts 168°
2026-04-23 18:06 40.31605 2.45667 37121 ft 497 kts 168°
2026-04-23 18:06 40.24923 2.47973 37113 ft 496 kts 168°
2026-04-23 18:07 40.18250 2.50271 37110 ft 495 kts 168°
2026-04-23 18:07 40.11595 2.52565 37110 ft 494 kts 168°
2026-04-23 18:08 40.06069 2.54468 37104 ft 494 kts 168°
2026-04-23 18:08 39.98306 2.57137 37095 ft 493 kts 168°
2026-04-23 18:09 39.91683 2.59409 37099 ft 492 kts 168°
2026-04-23 18:09 39.85101 2.61661 37103 ft 492 kts 168°
2026-04-23 18:10 39.78478 2.63923 37102 ft 492 kts 168°
2026-04-23 18:10 39.71858 2.66180 37099 ft 492 kts 168°
2026-04-23 18:11 39.65237 2.68434 37101 ft 492 kts 168°
2026-04-23 18:11 39.58609 2.70683 37107 ft 493 kts 168°
2026-04-23 18:12 39.51963 2.72936 37101 ft 494 kts 168°
2026-04-23 18:12 39.45312 2.75187 37096 ft 495 kts 168°
2026-04-23 18:13 39.38648 2.77466 37101 ft 495 kts 168°
2026-04-23 18:13 39.31993 2.79789 37088 ft 496 kts 168°
2026-04-23 18:14 39.25339 2.82108 37096 ft 495 kts 168°
2026-04-23 18:14 39.18689 2.84412 37082 ft 495 kts 168°
2026-04-23 18:15 39.12038 2.86710 37088 ft 494 kts 168°
2026-04-23 18:15 39.05398 2.89001 37085 ft 494 kts 168°
2026-04-23 18:16 38.98764 2.91268 37088 ft 493 kts 168°
2026-04-23 18:16 38.92173 2.93479 37084 ft 493 kts 168°
2026-04-23 18:17 38.82239 2.96873 37071 ft 492 kts 168°
2026-04-23 18:17 38.75633 2.99135 37076 ft 491 kts 168°
2026-04-23 18:18 38.69022 3.01389 37064 ft 491 kts 168°
2026-04-23 18:18 38.62418 3.03634 37066 ft 491 kts 168°
2026-04-23 18:19 38.55817 3.05875 37065 ft 491 kts 168°
2026-04-23 18:19 38.49206 3.08114 37067 ft 492 kts 168°
2026-04-23 18:20 38.42582 3.10353 37061 ft 493 kts 168°
2026-04-23 18:20 38.35936 3.12597 37064 ft 494 kts 168°
2026-04-23 18:21 38.29282 3.14839 37063 ft 495 kts 168°
2026-04-23 18:21 38.22617 3.17065 37049 ft 495 kts 168°
2026-04-23 18:22 38.15946 3.19285 37054 ft 495 kts 168°
2026-04-23 18:22 38.09272 3.21420 37043 ft 494 kts 170°
2026-04-23 18:23 37.99207 3.24173 37050 ft 493 kts 171°
2026-04-23 18:24 37.89163 3.26927 37033 ft 492 kts 171°
2026-04-23 18:25 37.79144 3.29722 37039 ft 491 kts 171°
2026-04-23 18:25 37.72468 3.31582 37030 ft 491 kts 171°
2026-04-23 18:26 37.65841 3.33423 37016 ft 491 kts 171°
2026-04-23 18:26 37.59177 3.35270 37028 ft 490 kts 171°
2026-04-23 18:27 37.52517 3.37113 37025 ft 490 kts 171°
2026-04-23 18:27 37.45812 3.38964 37018 ft 490 kts 171°
2026-04-23 18:28 37.39201 3.40787 37011 ft 490 kts 171°
2026-04-23 18:28 37.32547 3.42618 37015 ft 489 kts 171°
2026-04-23 18:29 37.25895 3.44445 37004 ft 489 kts 171°
2026-04-23 18:29 37.19247 3.46268 37005 ft 489 kts 171°
2026-04-23 18:30 37.12599 3.48087 36997 ft 489 kts 171°
2026-04-23 18:30 37.05952 3.49903 36997 ft 489 kts 171°
2026-04-23 18:31 36.99307 3.51716 36996 ft 489 kts 171°
2026-04-23 18:31 36.92661 3.53525 36977 ft 489 kts 171°
2026-04-23 18:32 36.86020 3.55331 36987 ft 488 kts 171°
2026-04-23 18:32 36.79382 3.57185 36980 ft 489 kts 168°
2026-04-23 18:33 36.72912 3.59924 36990 ft 492 kts 163°
2026-04-23 18:33 36.66486 3.62856 36974 ft 492 kts 163°
2026-04-23 18:34 36.60041 3.65748 37003 ft 492 kts 163°
2026-04-23 18:34 36.53594 3.68601 36981 ft 492 kts 163°
2026-04-23 18:35 36.47149 3.71446 36983 ft 491 kts 163°
2026-04-23 18:35 36.40713 3.74288 36977 ft 491 kts 163°
2026-04-23 18:36 36.34281 3.77117 36992 ft 490 kts 163°
2026-04-23 18:36 36.27843 3.79927 36988 ft 490 kts 163°
2026-04-23 18:37 36.21408 3.82730 36984 ft 491 kts 163°
2026-04-23 18:37 36.14954 3.85539 36992 ft 492 kts 163°
2026-04-23 18:38 36.08491 3.88348 36988 ft 493 kts 163°
2026-04-23 18:38 36.02018 3.91157 36984 ft 493 kts 163°
2026-04-23 18:39 35.95542 3.93963 36984 ft 493 kts 163°
2026-04-23 18:39 35.89065 3.96763 36984 ft 493 kts 163°
2026-04-23 18:40 35.82589 3.99559 36959 ft 493 kts 164°
2026-04-23 18:40 35.76112 4.02351 36961 ft 493 kts 164°
2026-04-23 18:41 35.69643 4.05135 36964 ft 492 kts 164°
2026-04-23 18:41 35.63218 4.07897 36951 ft 492 kts 164°
2026-04-23 18:42 35.56758 4.10681 36967 ft 492 kts 164°
2026-04-23 18:42 35.50297 4.13464 36974 ft 492 kts 164°
2026-04-23 18:43 35.44885 4.15790 36985 ft 492 kts 164°
2026-04-23 18:43 35.38424 4.18562 36991 ft 492 kts 164°
2026-04-23 18:44 35.32112 4.21862 36998 ft 497 kts 154°
2026-04-23 18:44 35.26286 4.26483 37005 ft 501 kts 147°
2026-04-23 18:45 35.20574 4.31390 36988 ft 503 kts 147°
2026-04-23 18:45 35.14834 4.36276 36953 ft 503 kts 148°
2026-04-23 18:46 35.09066 4.41133 36966 ft 504 kts 148°
2026-04-23 18:46 35.03284 4.45979 36960 ft 503 kts 148°
2026-04-23 18:47 34.97511 4.50811 36957 ft 503 kts 148°
2026-04-23 18:47 34.91746 4.55629 36960 ft 502 kts 148°
2026-04-23 18:48 34.85985 4.60435 36950 ft 501 kts 148°
2026-04-23 18:48 34.80241 4.65220 36950 ft 501 kts 148°
2026-04-23 18:49 34.74533 4.69967 36949 ft 500 kts 148°
2026-04-23 18:49 34.68786 4.74738 36937 ft 500 kts 148°
2026-04-23 18:50 34.63971 4.78731 36921 ft 501 kts 148°
2026-04-23 18:50 34.57276 4.84269 36932 ft 502 kts 148°
2026-04-23 18:51 34.51501 4.89039 36928 ft 503 kts 148°
2026-04-23 18:51 34.45710 4.93816 36928 ft 504 kts 148°
2026-04-23 18:52 34.39904 4.98596 36924 ft 505 kts 148°
2026-04-23 18:52 34.34109 5.03391 36923 ft 504 kts 148°
2026-04-23 18:53 34.28347 5.08216 36918 ft 503 kts 148°
2026-04-23 18:53 34.22607 5.13021 36920 ft 501 kts 148°
2026-04-23 18:54 34.16876 5.17802 36925 ft 500 kts 148°
2026-04-23 18:54 34.11154 5.22562 36929 ft 499 kts 148°
2026-04-23 18:55 34.05430 5.27314 36921 ft 500 kts 148°
2026-04-23 18:55 33.99694 5.32069 36929 ft 501 kts 148°
2026-04-23 18:56 33.94910 5.36029 36933 ft 504 kts 148°
2026-04-23 18:56 33.88131 5.41630 36939 ft 508 kts 148°
2026-04-23 18:57 33.82291 5.46448 36932 ft 510 kts 148°
2026-04-23 18:57 33.76424 5.51280 36936 ft 511 kts 148°
2026-04-23 18:58 33.70551 5.56109 36933 ft 511 kts 148°
2026-04-23 18:58 33.64684 5.60925 36936 ft 510 kts 148°
2026-04-23 18:59 33.58828 5.65724 36933 ft 509 kts 148°
2026-04-23 18:59 33.52985 5.70504 36920 ft 507 kts 148°
2026-04-23 19:00 33.47193 5.75234 36930 ft 507 kts 148°
2026-04-23 19:00 33.41365 5.79985 36939 ft 507 kts 148°
2026-04-23 19:01 33.35531 5.84734 36934 ft 508 kts 148°
2026-04-23 19:01 33.29686 5.89484 36937 ft 508 kts 148°
2026-04-23 19:02 33.24783 5.93463 36938 ft 509 kts 148°
2026-04-23 19:02 33.17978 5.98977 36942 ft 509 kts 148°
2026-04-23 19:03 33.12115 6.03720 36939 ft 509 kts 148°
2026-04-23 19:03 33.05984 6.07848 36937 ft 503 kts 162°
2026-04-23 19:04 32.99301 6.10081 36923 ft 496 kts 176°
2026-04-23 19:04 32.92466 6.11116 36938 ft 496 kts 178°
2026-04-23 19:05 32.85605 6.12134 36946 ft 498 kts 177°
2026-04-23 19:05 32.78721 6.13203 36946 ft 500 kts 177°
2026-04-23 19:06 32.71818 6.14303 36929 ft 501 kts 177°
2026-04-23 19:06 32.64910 6.15408 36944 ft 500 kts 177°
2026-04-23 19:07 32.58009 6.16508 36944 ft 500 kts 177°
2026-04-23 19:07 32.51116 6.17602 36942 ft 500 kts 177°
2026-04-23 19:08 32.44230 6.18693 36925 ft 499 kts 178°
2026-04-23 19:08 32.37398 6.19774 36942 ft 498 kts 178°
2026-04-23 19:09 32.30526 6.20860 36939 ft 498 kts 178°
2026-04-23 19:09 32.23652 6.21944 36942 ft 498 kts 178°
2026-04-23 19:10 32.16776 6.23027 36929 ft 498 kts 178°
2026-04-23 19:10 32.09899 6.24108 36937 ft 499 kts 178°
2026-04-23 19:11 32.03013 6.25189 36934 ft 500 kts 178°
2026-04-23 19:11 31.96119 6.26270 36939 ft 500 kts 178°
2026-04-23 19:12 31.90380 6.27169 36923 ft 501 kts 178°
2026-04-23 19:12 31.82304 6.28431 36938 ft 501 kts 178°
2026-04-23 19:13 31.75389 6.29511 36938 ft 501 kts 178°
2026-04-23 19:13 31.68471 6.30589 36937 ft 502 kts 178°
2026-04-23 19:14 31.61549 6.31666 36916 ft 502 kts 179°
2026-04-23 19:14 31.54623 6.32741 36923 ft 502 kts 178°
2026-04-23 19:15 31.47689 6.33817 36927 ft 503 kts 178°
2026-04-23 19:15 31.40792 6.34886 36938 ft 503 kts 178°
2026-04-23 19:16 31.33799 6.35968 36911 ft 504 kts 179°
2026-04-23 19:16 31.26895 6.37034 36922 ft 504 kts 179°
2026-04-23 19:17 31.16526 6.38633 36911 ft 504 kts 179°
2026-04-23 19:17 31.09567 6.39703 36927 ft 504 kts 179°
2026-04-23 19:18 31.02608 6.40773 36908 ft 504 kts 179°
2026-04-23 19:18 30.95648 6.41842 36917 ft 505 kts 179°
2026-04-23 19:19 30.85191 6.43442 36918 ft 506 kts 179°
2026-04-23 19:20 30.74716 6.45041 36907 ft 506 kts 180°
2026-04-23 19:20 30.67729 6.46106 36914 ft 507 kts 180°
2026-04-23 19:21 30.57215 6.47706 36910 ft 509 kts 179°
2026-04-23 19:22 30.50193 6.48773 36911 ft 509 kts 179°
2026-04-23 19:22 30.39646 6.50373 36911 ft 510 kts 179°
2026-04-23 19:23 30.32611 6.51438 36908 ft 510 kts 179°
2026-04-23 19:24 30.22069 6.53032 36882 ft 509 kts 180°
2026-04-23 19:24 30.11528 6.54621 36906 ft 509 kts 180°
2026-04-23 19:25 29.97458 6.56736 36904 ft 510 kts 180°
2026-04-23 19:26 29.86885 6.58322 36904 ft 512 kts 180°
2026-04-23 19:27 29.69182 6.60970 36909 ft 514 kts 180°
2026-04-23 19:28 29.55023 6.63082 36905 ft 516 kts 181°
2026-04-23 19:29 29.44333 6.64672 36907 ft 517 kts 181°
2026-04-23 19:30 29.33629 6.66260 36901 ft 517 kts 181°
2026-04-23 19:31 29.22910 6.67848 36909 ft 518 kts 181°
2026-04-23 19:31 29.16966 6.68727 36910 ft 518 kts 181°
2026-04-23 19:32 29.09811 6.69784 36903 ft 518 kts 181°
2026-04-23 19:32 29.02663 6.70840 36910 ft 518 kts 182°
2026-04-23 19:33 28.95517 6.71893 36910 ft 518 kts 182°
2026-04-23 19:33 28.84790 6.73469 36909 ft 518 kts 182°
2026-04-23 19:34 28.77636 6.74518 36885 ft 518 kts 182°
2026-04-23 19:35 28.66915 6.76090 36914 ft 518 kts 182°
2026-04-23 19:35 28.59767 6.77136 36914 ft 518 kts 182°
2026-04-23 19:36 28.52616 6.78179 36914 ft 518 kts 182°
2026-04-23 19:36 28.45463 6.79224 36902 ft 518 kts 182°
2026-04-23 19:37 28.38320 6.80265 36912 ft 518 kts 182°
2026-04-23 19:37 28.31165 6.81305 36922 ft 518 kts 182°
2026-04-23 19:38 28.24010 6.82345 36919 ft 518 kts 182°
2026-04-23 19:38 28.16858 6.83384 36904 ft 518 kts 183°
2026-04-23 19:39 28.09713 6.84372 36938 ft 516 kts 184°
2026-04-23 19:39 28.02612 6.85152 36918 ft 516 kts 185°
2026-04-23 19:40 27.95448 6.85897 36902 ft 517 kts 185°
2026-04-23 19:40 27.88274 6.86673 36876 ft 518 kts 185°
2026-04-23 19:41 27.81114 6.87467 36914 ft 518 kts 185°
2026-04-23 19:41 27.73943 6.88264 36911 ft 518 kts 185°
2026-04-23 19:42 27.66775 6.89058 36918 ft 518 kts 185°
2026-04-23 19:42 27.59596 6.89850 36904 ft 518 kts 185°
2026-04-23 19:43 27.52420 6.90641 36917 ft 518 kts 185°
2026-04-23 19:43 27.45251 6.91429 36911 ft 518 kts 185°
2026-04-23 19:44 27.38085 6.92217 36907 ft 517 kts 185°
2026-04-23 19:44 27.30917 6.93004 36908 ft 517 kts 185°
2026-04-23 19:45 27.23765 6.93789 36911 ft 516 kts 185°
2026-04-23 19:45 27.16614 6.94570 36914 ft 516 kts 185°
2026-04-23 19:46 27.09465 6.95351 36912 ft 516 kts 185°
2026-04-23 19:46 27.02318 6.96132 36912 ft 516 kts 185°
2026-04-23 19:47 26.95176 6.96912 36907 ft 514 kts 186°
2026-04-23 19:47 26.88085 6.97688 36905 ft 509 kts 186°
2026-04-23 19:48 26.81028 6.98457 36910 ft 511 kts 186°
2026-04-23 19:48 26.73931 6.99219 36926 ft 514 kts 186°
2026-04-23 19:49 26.66802 6.99996 36886 ft 515 kts 186°
2026-04-23 19:49 26.59652 7.00768 36923 ft 519 kts 186°
2026-04-23 19:50 26.52433 7.01545 36912 ft 522 kts 185°
2026-04-23 19:50 26.45203 7.02334 36916 ft 521 kts 186°
2026-04-23 19:51 26.37994 7.03114 36888 ft 520 kts 186°
2026-04-23 19:51 26.30814 7.03889 36919 ft 518 kts 186°
2026-04-23 19:52 26.23656 7.04658 36924 ft 516 kts 186°
2026-04-23 19:52 26.16521 7.05427 36938 ft 515 kts 186°
2026-04-23 19:53 26.09399 7.06193 36932 ft 514 kts 187°
2026-04-23 19:53 26.02291 7.06955 36930 ft 512 kts 187°
2026-04-23 19:54 25.95164 7.07724 36953 ft 518 kts 187°
2026-04-23 19:54 25.87944 7.08513 36895 ft 526 kts 186°
2026-04-23 19:55 25.80822 7.09298 36944 ft 511 kts 186°
2026-04-23 19:55 25.73696 7.10071 36949 ft 511 kts 186°
2026-04-23 19:56 25.66660 7.10829 36952 ft 512 kts 186°
2026-04-23 19:56 25.59553 7.11598 36957 ft 514 kts 186°
2026-04-23 19:57 25.52426 7.12371 36956 ft 515 kts 186°
2026-04-23 19:57 25.45291 7.13144 36938 ft 515 kts 186°
2026-04-23 19:58 25.38154 7.13915 36936 ft 516 kts 186°
2026-04-23 19:58 25.31005 7.14687 36943 ft 516 kts 186°
2026-04-23 19:59 25.23856 7.15459 36944 ft 516 kts 186°
2026-04-23 19:59 25.16706 7.16230 36948 ft 516 kts 186°
2026-04-23 20:00 25.09572 7.16999 36935 ft 514 kts 186°
2026-04-23 20:00 25.02455 7.17765 36935 ft 514 kts 186°
2026-04-23 20:01 24.95346 7.18527 36937 ft 513 kts 186°
2026-04-23 20:01 24.88221 7.19290 36929 ft 514 kts 186°
2026-04-23 20:02 24.81105 7.20057 36898 ft 513 kts 186°
2026-04-23 20:02 24.74006 7.20821 36915 ft 512 kts 186°
2026-04-23 20:03 24.66919 7.21581 36915 ft 512 kts 186°
2026-04-23 20:03 24.59832 7.22339 36920 ft 511 kts 186°
2026-04-23 20:04 24.52745 7.23096 36910 ft 512 kts 186°
2026-04-23 20:04 24.45660 7.23853 36917 ft 512 kts 186°
2026-04-23 20:05 24.39767 7.24482 36916 ft 512 kts 186°
2026-04-23 20:05 24.31473 7.25366 36916 ft 512 kts 186°
2026-04-23 20:06 24.24419 7.26118 36910 ft 513 kts 186°
2026-04-23 20:06 24.17316 7.26873 36918 ft 512 kts 186°
2026-04-23 20:07 24.10229 7.27627 36923 ft 512 kts 186°
2026-04-23 20:07 24.03145 7.28379 36919 ft 511 kts 186°
2026-04-23 20:08 23.96067 7.29130 36925 ft 511 kts 186°
2026-04-23 20:08 23.88992 7.29879 36883 ft 511 kts 186°
2026-04-23 20:09 23.81920 7.30627 36881 ft 510 kts 185°
2026-04-23 20:09 23.74862 7.31374 36895 ft 509 kts 186°
2026-04-23 20:10 23.68997 7.31992 36892 ft 509 kts 186°
2026-04-23 20:10 23.60744 7.32863 36886 ft 510 kts 186°
2026-04-23 20:11 23.53686 7.33606 36868 ft 509 kts 185°
2026-04-23 20:11 23.46638 7.34419 36866 ft 511 kts 184°
2026-04-23 20:12 23.39582 7.35459 36870 ft 512 kts 182°
2026-04-23 20:12 23.32513 7.36533 36938 ft 516 kts 183°
2026-04-23 20:12 23.28950 7.37061 37239 ft 516 kts 183°
2026-04-23 20:13 23.25398 7.37582 37651 ft 514 kts 183°
2026-04-23 20:13 23.21876 7.38097 38188 ft 508 kts 183°
2026-04-23 20:13 23.18387 7.38604 38661 ft 504 kts 183°
2026-04-23 20:13 23.14910 7.39105 38887 ft 505 kts 183°
2026-04-23 20:14 23.11445 7.39595 38856 ft 511 kts 183°
2026-04-23 20:14 23.04411 7.40599 38849 ft 507 kts 183°
2026-04-23 20:15 22.97458 7.41605 38837 ft 502 kts 183°
2026-04-23 20:15 22.90548 7.42596 38827 ft 500 kts 182°
2026-04-23 20:16 22.83657 7.43581 38854 ft 499 kts 182°
2026-04-23 20:16 22.76761 7.44565 38845 ft 500 kts 182°
2026-04-23 20:17 22.69852 7.45552 38849 ft 501 kts 182°
2026-04-23 20:17 22.62926 7.46540 38841 ft 503 kts 182°
2026-04-23 20:18 22.55988 7.47531 38836 ft 503 kts 182°
2026-04-23 20:18 22.49048 7.48522 38832 ft 503 kts 182°
2026-04-23 20:19 22.42106 7.49511 38831 ft 503 kts 182°
2026-04-23 20:19 22.36331 7.50333 38829 ft 503 kts 182°
2026-04-23 20:20 22.29392 7.51320 38825 ft 503 kts 182°
2026-04-23 20:20 22.22463 7.52304 38816 ft 501 kts 182°
2026-04-23 20:21 22.15557 7.53285 38818 ft 500 kts 182°
2026-04-23 20:21 22.08663 7.54262 38815 ft 499 kts 182°
2026-04-23 20:22 22.01778 7.55236 38809 ft 499 kts 182°
2026-04-23 20:22 21.94903 7.56209 38796 ft 498 kts 182°
2026-04-23 20:23 21.88034 7.57179 38805 ft 497 kts 182°
2026-04-23 20:23 21.81172 7.58148 38812 ft 497 kts 182°
2026-04-23 20:24 21.74356 7.59109 38810 ft 497 kts 182°
2026-04-23 20:24 21.67492 7.60076 38804 ft 498 kts 182°
2026-04-23 20:25 21.60626 7.61042 38785 ft 498 kts 182°
2026-04-23 20:25 21.53755 7.62010 38799 ft 498 kts 182°
2026-04-23 20:26 21.46887 7.62974 38815 ft 498 kts 182°
2026-04-23 20:26 21.40015 7.63939 38809 ft 498 kts 182°
2026-04-23 20:27 21.33137 7.64903 38800 ft 499 kts 182°
2026-04-23 20:27 21.26260 7.65867 38801 ft 498 kts 182°
2026-04-23 20:28 21.19386 7.66830 38802 ft 498 kts 182°
2026-04-23 20:28 21.12511 7.67792 38803 ft 498 kts 182°
2026-04-23 20:29 21.05638 7.68752 38798 ft 498 kts 182°
2026-04-23 20:29 20.98764 7.69712 38800 ft 498 kts 182°
2026-04-23 20:30 20.91910 7.70460 38788 ft 493 kts 185°
2026-04-23 20:30 20.81670 7.71245 38796 ft 491 kts 185°
2026-04-23 20:31 20.74855 7.71772 38800 ft 491 kts 185°
2026-04-23 20:31 20.68039 7.72318 38792 ft 491 kts 185°
2026-04-23 20:32 20.61226 7.72871 38779 ft 491 kts 185°
2026-04-23 20:32 20.54422 7.73424 38794 ft 490 kts 185°
2026-04-23 20:33 20.47623 7.73972 38792 ft 490 kts 185°
2026-04-23 20:33 20.40871 7.74516 38792 ft 490 kts 185°
2026-04-23 20:34 20.34075 7.75064 38802 ft 490 kts 185°
2026-04-23 20:34 20.27285 7.75611 38785 ft 489 kts 185°
2026-04-23 20:35 20.20496 7.76157 38795 ft 489 kts 185°
2026-04-23 20:35 20.13716 7.76702 38790 ft 488 kts 185°
2026-04-23 20:36 20.06940 7.77246 38791 ft 488 kts 185°
2026-04-23 20:36 20.00170 7.77789 38788 ft 488 kts 185°
2026-04-23 20:37 19.93404 7.78331 38784 ft 487 kts 185°
2026-04-23 20:37 19.86646 7.78873 38792 ft 487 kts 185°
2026-04-23 20:38 19.79885 7.79414 38792 ft 487 kts 185°
2026-04-23 20:38 19.73121 7.79954 38794 ft 487 kts 185°
2026-04-23 20:39 19.66355 7.80494 38790 ft 488 kts 185°
2026-04-23 20:39 19.59584 7.81035 38778 ft 488 kts 184°
2026-04-23 20:40 19.52814 7.81575 38774 ft 488 kts 184°
2026-04-23 20:40 19.46049 7.82120 38792 ft 487 kts 184°
2026-04-23 20:41 19.39286 7.82678 38794 ft 488 kts 184°
2026-04-23 20:41 19.32511 7.83238 38786 ft 488 kts 184°
2026-04-23 20:42 19.25783 7.83791 38772 ft 488 kts 184°
2026-04-23 20:42 19.19018 7.84348 38788 ft 487 kts 184°
2026-04-23 20:43 19.12257 7.84903 38783 ft 487 kts 184°
2026-04-23 20:43 19.05494 7.85457 38777 ft 487 kts 184°
2026-04-23 20:44 18.98735 7.86011 38779 ft 487 kts 184°
2026-04-23 20:44 18.91978 7.86562 38768 ft 487 kts 183°
2026-04-23 20:45 18.85225 7.87115 38782 ft 486 kts 183°
2026-04-23 20:45 18.78480 7.87668 38779 ft 486 kts 183°
2026-04-23 20:46 18.71739 7.88218 38778 ft 486 kts 183°
2026-04-23 20:46 18.64993 7.88768 38776 ft 486 kts 183°
2026-04-23 20:47 18.58247 7.89317 38768 ft 486 kts 183°
2026-04-23 20:47 18.51502 7.89866 38777 ft 486 kts 183°
2026-04-23 20:48 18.44759 7.90417 38785 ft 486 kts 183°
2026-04-23 20:48 18.38006 7.90966 38778 ft 487 kts 182°
2026-04-23 20:49 18.31251 7.91515 38783 ft 487 kts 183°
2026-04-23 20:49 18.24540 7.92059 38761 ft 487 kts 182°
2026-04-23 20:50 18.17779 7.92607 38776 ft 487 kts 182°
2026-04-23 20:50 18.11022 7.93157 38778 ft 487 kts 182°
2026-04-23 20:51 18.04265 7.93704 38785 ft 487 kts 182°
2026-04-23 20:51 17.97505 7.94251 38776 ft 487 kts 182°
2026-04-23 20:52 17.90752 7.94797 38775 ft 487 kts 182°
2026-04-23 20:52 17.84000 7.95345 38777 ft 486 kts 182°
2026-04-23 20:53 17.77252 7.95888 38778 ft 486 kts 182°
2026-04-23 20:53 17.70503 7.96433 38776 ft 486 kts 182°
2026-04-23 20:54 17.63755 7.96977 38783 ft 486 kts 182°
2026-04-23 20:54 17.56999 7.97521 38755 ft 487 kts 182°
2026-04-23 20:55 17.50254 7.98065 38772 ft 486 kts 182°
2026-04-23 20:55 17.43516 7.98607 38772 ft 485 kts 182°
2026-04-23 20:56 17.36793 7.99148 38765 ft 485 kts 182°
2026-04-23 20:56 17.30069 7.99688 38771 ft 484 kts 182°
2026-04-23 20:57 17.23396 8.00224 38734 ft 484 kts 182°
2026-04-23 20:57 17.16698 8.00762 38760 ft 482 kts 181°
2026-04-23 20:58 17.10013 8.01298 38765 ft 481 kts 181°
2026-04-23 20:58 17.03347 8.01832 38768 ft 480 kts 181°
2026-04-23 20:59 16.96696 8.02366 38757 ft 480 kts 181°
2026-04-23 20:59 16.90042 8.02985 38759 ft 480 kts 180°
2026-04-23 21:00 16.83400 8.03646 38753 ft 479 kts 180°
2026-04-23 21:00 16.76769 8.04300 38754 ft 478 kts 180°
2026-04-23 21:01 16.70149 8.04942 38757 ft 478 kts 180°
2026-04-23 21:01 16.63528 8.05580 38755 ft 477 kts 180°
2026-04-23 21:02 16.56911 8.06216 38758 ft 477 kts 180°
2026-04-23 21:02 16.50305 8.06851 38754 ft 476 kts 180°
2026-04-23 21:03 16.43711 8.07486 38748 ft 475 kts 180°
2026-04-23 21:03 16.37133 8.08119 38752 ft 474 kts 180°
2026-04-23 21:04 16.30570 8.08749 38759 ft 473 kts 180°
2026-04-23 21:04 16.24013 8.09379 38760 ft 473 kts 180°
2026-04-23 21:05 16.17460 8.10007 38752 ft 472 kts 179°
2026-04-23 21:05 16.10927 8.10633 38759 ft 471 kts 179°
2026-04-23 21:06 16.04405 8.11258 38763 ft 470 kts 179°
2026-04-23 21:06 15.97889 8.11882 38763 ft 470 kts 179°
2026-04-23 21:07 15.91384 8.12505 38761 ft 469 kts 179°
2026-04-23 21:07 15.84883 8.13126 38761 ft 469 kts 179°
2026-04-23 21:08 15.79481 8.13642 38755 ft 469 kts 179°
2026-04-23 21:08 15.71916 8.14364 38763 ft 470 kts 179°
2026-04-23 21:09 15.65395 8.14986 38763 ft 471 kts 179°
2026-04-23 21:09 15.58858 8.15610 38759 ft 472 kts 179°
2026-04-23 21:10 15.52311 8.16234 38761 ft 473 kts 179°
2026-04-23 21:10 15.46867 8.16753 38758 ft 473 kts 179°
2026-04-23 21:11 15.40314 8.17377 38761 ft 473 kts 179°
2026-04-23 21:11 15.33757 8.18001 38754 ft 473 kts 179°
2026-04-23 21:12 15.27202 8.18624 38757 ft 473 kts 179°
2026-04-23 21:12 15.20654 8.19246 38759 ft 472 kts 179°
2026-04-23 21:13 15.14113 8.19868 38755 ft 472 kts 179°
2026-04-23 21:13 15.07583 8.20488 38758 ft 471 kts 179°
2026-04-23 21:14 15.01062 8.21107 38754 ft 470 kts 178°
2026-04-23 21:14 14.94564 8.21724 38759 ft 469 kts 178°
2026-04-23 21:15 14.88074 8.22341 38756 ft 468 kts 179°
2026-04-23 21:15 14.81587 8.22956 38756 ft 468 kts 179°
2026-04-23 21:16 14.75110 8.23570 38768 ft 467 kts 178°
2026-04-23 21:16 14.68653 8.24182 38755 ft 465 kts 178°
2026-04-23 21:17 14.62214 8.24792 38754 ft 464 kts 178°
2026-04-23 21:17 14.55795 8.25400 38757 ft 462 kts 178°
2026-04-23 21:18 14.49394 8.26005 38763 ft 462 kts 178°
2026-04-23 21:18 14.42994 8.26610 38766 ft 462 kts 178°
2026-04-23 21:19 14.36597 8.27215 38766 ft 462 kts 178°
2026-04-23 21:19 14.30192 8.27819 38764 ft 462 kts 178°
2026-04-23 21:20 14.23820 8.28421 38768 ft 463 kts 178°
2026-04-23 21:20 14.17404 8.29026 38768 ft 463 kts 178°
2026-04-23 21:21 14.10978 8.29632 38763 ft 464 kts 178°
2026-04-23 21:21 14.04546 8.30238 38765 ft 464 kts 178°
2026-04-23 21:22 13.98103 8.30845 38772 ft 465 kts 178°
2026-04-23 21:22 13.91657 8.31452 38769 ft 466 kts 178°
2026-04-23 21:23 13.85198 8.32059 38768 ft 466 kts 178°
2026-04-23 21:23 13.78743 8.32667 38769 ft 466 kts 178°
2026-04-23 21:24 13.72281 8.33274 38768 ft 466 kts 178°
2026-04-23 21:24 13.65812 8.33885 38767 ft 468 kts 177°
2026-04-23 21:25 13.59312 8.34498 38788 ft 470 kts 177°
2026-04-23 21:25 13.52784 8.35113 38787 ft 472 kts 177°
2026-04-23 21:26 13.46226 8.35731 38776 ft 474 kts 177°
2026-04-23 21:26 13.39641 8.36352 38789 ft 475 kts 177°
2026-04-23 21:27 13.33051 8.36972 38776 ft 475 kts 177°
2026-04-23 21:27 13.26467 8.37592 38769 ft 474 kts 177°
2026-04-23 21:28 13.19956 8.38205 38770 ft 472 kts 177°
2026-04-23 21:28 13.13417 8.38816 38771 ft 470 kts 178°
2026-04-23 21:29 13.06940 8.38543 38780 ft 464 kts 191°
2026-04-23 21:29 13.00701 8.36970 38788 ft 461 kts 199°
2026-04-23 21:30 12.94600 8.34965 38776 ft 460 kts 199°
2026-04-23 21:30 12.88506 8.32961 38780 ft 459 kts 199°
2026-04-23 21:31 12.82415 8.30988 38789 ft 459 kts 199°
2026-04-23 21:31 12.76318 8.29030 38783 ft 459 kts 199°
2026-04-23 21:32 12.70216 8.27075 38779 ft 459 kts 199°
2026-04-23 21:32 12.64114 8.25120 38776 ft 460 kts 199°
2026-04-23 21:33 12.58003 8.23163 38777 ft 460 kts 199°
2026-04-23 21:33 12.51889 8.21206 38782 ft 461 kts 199°
2026-04-23 21:34 12.45770 8.19248 38789 ft 461 kts 199°
2026-04-23 21:34 12.39690 8.17303 38778 ft 461 kts 199°
2026-04-23 21:35 12.33565 8.15345 38782 ft 461 kts 199°
2026-04-23 21:35 12.27440 8.13388 38780 ft 461 kts 198°
2026-04-23 21:36 12.18253 8.10454 38780 ft 461 kts 198°
2026-04-23 21:37 12.12125 8.08498 38781 ft 461 kts 198°
2026-04-23 21:37 12.06000 8.06544 38792 ft 461 kts 198°
2026-04-23 21:38 11.99877 8.04592 38783 ft 461 kts 198°
2026-04-23 21:38 11.93750 8.02640 38785 ft 461 kts 198°
2026-04-23 21:39 11.87625 8.00689 38786 ft 461 kts 198°
2026-04-23 21:39 11.81498 7.98738 38787 ft 462 kts 198°
2026-04-23 21:40 11.75365 7.96786 38791 ft 462 kts 198°
2026-04-23 21:40 11.69227 7.94834 38786 ft 462 kts 198°
2026-04-23 21:41 11.63088 7.92882 38790 ft 462 kts 198°
2026-04-23 21:41 11.56945 7.90930 38792 ft 462 kts 198°
2026-04-23 21:42 11.50820 7.88984 38790 ft 462 kts 198°
2026-04-23 21:42 11.44703 7.87042 38795 ft 462 kts 198°
2026-04-23 21:43 11.38560 7.85093 38790 ft 463 kts 198°
2026-04-23 21:43 11.32414 7.83143 38793 ft 462 kts 198°
2026-04-23 21:44 11.26338 7.81217 38742 ft 453 kts 198°
2026-04-23 21:44 11.23322 7.80261 38454 ft 455 kts 198°
2026-04-23 21:44 11.20292 7.79301 38056 ft 456 kts 198°
2026-04-23 21:44 11.17280 7.78346 37662 ft 450 kts 198°
2026-04-23 21:45 11.14314 7.77407 37256 ft 444 kts 198°
2026-04-23 21:45 11.11371 7.76476 36809 ft 441 kts 198°
2026-04-23 21:45 11.08456 7.75553 36361 ft 437 kts 198°
2026-04-23 21:45 11.05556 7.74635 35897 ft 435 kts 198°
2026-04-23 21:46 11.02671 7.73722 35434 ft 433 kts 198°
2026-04-23 21:46 10.99799 7.72813 34963 ft 432 kts 199°
2026-04-23 21:46 10.96934 7.71906 34479 ft 431 kts 199°
2026-04-23 21:46 10.94070 7.71000 34009 ft 431 kts 199°
2026-04-23 21:47 10.91208 7.70095 33494 ft 430 kts 199°
2026-04-23 21:47 10.88355 7.69193 33017 ft 429 kts 199°
2026-04-23 21:47 10.85505 7.68292 32536 ft 428 kts 199°
2026-04-23 21:47 10.82710 7.67409 32075 ft 427 kts 199°
2026-04-23 21:48 10.79874 7.66512 31625 ft 427 kts 199°
2026-04-23 21:48 10.77042 7.65618 31152 ft 426 kts 199°
2026-04-23 21:48 10.74248 7.64735 30690 ft 426 kts 199°
2026-04-23 21:48 10.71415 7.63840 30209 ft 427 kts 199°
2026-04-23 21:49 10.68576 7.62944 29725 ft 428 kts 199°
2026-04-23 21:49 10.65736 7.62047 29182 ft 427 kts 199°
2026-04-23 21:49 10.62899 7.61151 28696 ft 426 kts 199°
2026-04-23 21:49 10.60071 7.60259 28216 ft 425 kts 199°
2026-04-23 21:50 10.57255 7.59371 27739 ft 423 kts 199°
2026-04-23 21:50 10.54451 7.58487 27273 ft 422 kts 199°
2026-04-23 21:50 10.51650 7.57603 26787 ft 420 kts 199°
2026-04-23 21:50 10.48861 7.56724 26318 ft 419 kts 199°
2026-04-23 21:51 10.46083 7.55848 25872 ft 417 kts 199°
2026-04-23 21:51 10.43315 7.54975 25386 ft 416 kts 199°
2026-04-23 21:51 10.40552 7.54105 24915 ft 415 kts 199°
2026-04-23 21:51 10.37797 7.53237 24447 ft 414 kts 198°
2026-04-23 21:52 10.35055 7.52373 23993 ft 412 kts 198°
2026-04-23 21:52 10.32320 7.51512 23522 ft 411 kts 198°
2026-04-23 21:52 10.29597 7.50654 22989 ft 409 kts 198°
2026-04-23 21:52 10.26890 7.49802 22492 ft 406 kts 198°
2026-04-23 21:53 10.24202 7.48956 22012 ft 403 kts 198°
2026-04-23 21:53 10.21533 7.48116 21549 ft 400 kts 198°
2026-04-23 21:53 10.18884 7.47282 21097 ft 397 kts 198°
2026-04-23 21:53 10.16252 7.46454 20643 ft 395 kts 198°
2026-04-23 21:54 10.13639 7.45632 20200 ft 393 kts 198°
2026-04-23 21:54 10.11031 7.44812 19752 ft 391 kts 198°
2026-04-23 21:54 10.08436 7.43996 19298 ft 390 kts 198°
2026-04-23 21:54 10.05846 7.43181 18833 ft 389 kts 198°
2026-04-23 21:55 10.03259 7.42368 18377 ft 389 kts 198°
2026-04-23 21:55 10.00678 7.41556 17878 ft 389 kts 198°
2026-04-23 21:55 9.98094 7.40743 17394 ft 387 kts 198°
2026-04-23 21:55 9.95528 7.39936 16923 ft 385 kts 198°
2026-04-23 21:56 9.93004 7.39144 16452 ft 372 kts 198°
2026-04-23 21:56 9.90586 7.38385 16020 ft 356 kts 198°
2026-04-23 21:56 9.88267 7.37657 15617 ft 342 kts 197°
2026-04-23 21:56 9.85987 7.37228 15204 ft 327 kts 176°
2026-04-23 21:57 9.83815 7.37564 14885 ft 318 kts 166°
2026-04-23 21:57 9.81642 7.38020 14527 ft 321 kts 166°
2026-04-23 21:57 9.79434 7.38478 14155 ft 328 kts 166°
2026-04-23 21:57 9.77176 7.38942 13759 ft 333 kts 166°
2026-04-23 21:58 9.74892 7.39406 13347 ft 335 kts 166°
2026-04-23 21:58 9.72606 7.39867 12925 ft 335 kts 166°
2026-04-23 21:58 9.70317 7.40326 12521 ft 334 kts 166°
2026-04-23 21:58 9.68072 7.40775 12111 ft 324 kts 166°
2026-04-23 21:59 9.65898 7.41208 11730 ft 314 kts 166°
2026-04-23 21:59 9.63785 7.41629 11363 ft 305 kts 166°
2026-04-23 21:59 9.61731 7.42038 11016 ft 298 kts 166°
2026-04-23 22:00 9.57646 7.42856 10365 ft 310 kts 166°
2026-04-23 22:00 9.55484 7.43289 10065 ft 319 kts 167°
2026-04-23 22:00 9.53321 7.43720 9913 ft 314 kts 167°
2026-04-23 22:00 9.51184 7.44145 9587 ft 313 kts 167°
2026-04-23 22:01 9.49771 7.44426 9338 ft 313 kts 167°
2026-04-23 22:01 9.47649 7.44834 8955 ft 305 kts 171°
2026-04-23 22:01 9.45569 7.44881 8615 ft 295 kts 184°
2026-04-23 22:01 9.43595 7.44669 8287 ft 285 kts 187°
2026-04-23 22:02 9.41663 7.44417 7954 ft 276 kts 187°
2026-04-23 22:02 9.39791 7.44179 7641 ft 267 kts 187°
2026-04-23 22:02 9.37960 7.43960 7362 ft 265 kts 187°
2026-04-23 22:02 9.36081 7.43746 7062 ft 278 kts 187°
2026-04-23 22:03 9.34133 7.43530 6727 ft 284 kts 187°
2026-04-23 22:03 9.32166 7.43319 6394 ft 284 kts 187°
2026-04-23 22:03 9.30238 7.43118 6056 ft 272 kts 187°
2026-04-23 22:03 9.28411 7.42928 5872 ft 253 kts 187°
2026-04-23 22:04 9.26702 7.42751 5623 ft 245 kts 188°
2026-04-23 22:04 9.24984 7.42568 5365 ft 253 kts 187°
2026-04-23 22:04 9.23282 7.42206 5054 ft 251 kts 204°
2026-04-23 22:04 9.21801 7.41307 4921 ft 244 kts 213°
2026-04-23 22:05 9.20456 7.40367 4774 ft 224 kts 213°
2026-04-23 22:05 9.19235 7.39501 4669 ft 204 kts 213°
2026-04-23 22:05 9.18127 7.38713 4561 ft 185 kts 213°
2026-04-23 22:05 9.17079 7.37966 4548 ft 185 kts 212°
2026-04-23 22:06 9.16063 7.37242 4321 ft 169 kts 212°
2026-04-23 22:06 9.15144 7.36588 4095 ft 156 kts 211°
2026-04-23 22:06 9.14294 7.35986 3876 ft 148 kts 213°
2026-04-23 22:06 9.13440 7.35379 3706 ft 148 kts 212°
2026-04-23 22:07 9.12602 7.34783 3525 ft 150 kts 211°
2026-04-23 22:07 9.11771 7.34192 3361 ft 143 kts 211°
2026-04-23 22:07 9.10956 7.33614 3164 ft 143 kts 210°
2026-04-23 22:07 9.10138 7.33033 3005 ft 145 kts 211°
2026-04-23 22:08 9.09321 7.32451 2804 ft 143 kts 211°
2026-04-23 22:08 9.08500 7.31869 2628 ft 146 kts 211°
2026-04-23 22:08 9.07662 7.31273 2442 ft 149 kts 211°
2026-04-23 22:08 9.06820 7.30674 2235 ft 145 kts 211°
2026-04-23 22:09 9.06005 7.30093 2063 ft 147 kts 208°
2026-04-23 22:09 9.05122 7.29471 1950 ft 157 kts 213°
2026-04-23 22:09 9.04249 7.28848 1699 ft 153 kts 210°
2026-04-23 22:09 9.03400 7.28244 1457 ft 152 kts 209°
2026-04-23 22:10 9.02511 7.27610 1289 ft 160 kts 212°
2026-04-23 22:10 9.01631 7.26987 1141 ft 147 kts 213°
2026-04-23 22:10 9.00904 7.26474 1112 ft 105 kts 214°
2026-04-23 22:10 9.00432 7.26139 1110 ft 59 kts 215°
2026-04-23 22:11 9.00213 7.26023 1110 ft 18 kts 187°
2026-04-23 22:11 9.00139 7.26028 1110 ft 13 kts 166°
2026-04-23 22:11 9.00077 7.26080 1105 ft 7 kts 89°
2026-04-23 22:11 9.00113 7.26123 1104 ft 10 kts 38°
2026-04-23 22:12 9.00177 7.26168 1104 ft 12 kts 35°
2026-04-23 22:12 9.00248 7.26218 1108 ft 12 kts 34°
2026-04-23 22:12 9.00319 7.26267 1107 ft 12 kts 34°
2026-04-23 22:12 9.00387 7.26315 1113 ft 12 kts 35°
2026-04-23 22:13 9.00461 7.26368 1109 ft 14 kts 35°
2026-04-23 22:13 9.00539 7.26423 1107 ft 14 kts 35°
2026-04-23 22:13 9.00616 7.26477 1111 ft 14 kts 34°
2026-04-23 22:13 9.00693 7.26531 1122 ft 14 kts 35°
2026-04-23 22:14 9.00771 7.26587 1117 ft 13 kts 38°
2026-04-23 22:14 9.00790 7.26666 1132 ft 12 kts 108°
2026-04-23 22:14 9.00734 7.26694 1133 ft 7 kts 179°
2026-04-23 22:14 9.00714 7.26695 1131 ft 0 kts 179°